Location: Bacharowice
(49.9333°N, 19.5833°E)
Time: 08:30:30
(UTC+00:00)

Cosmos 2298 Rocket - Pass Details

Date: 11 May 2021
Orbit: 776 x 784 km, 74.0° (Epoch: 21 June)

Event Time Altitude Azimuth Distance (km) Brightness Sun altitude
Exits shadow 22:35:34 52° 175° (S) 964 4.1 -21.9°
Maximum altitude 22:36:47 72° 110° (ESE) 820 4.0 -21.9°
Drops below altitude 10° 22:42:04 10° 27° (NNE) 2,336 7.4 -21.9°
Sets 22:44:28 0° 26° (NNE) 3,268 8.4 -21.9°
